Time,TemperatureF,DewpointF,PressureIn,WindDirection,WindDirectionDegrees,WindSpeedMPH,WindSpeedGustMPH,Humidity,HourlyPrecipIn,Conditions,Clouds,dailyrainin,SoftwareType,DateUTC
2013-06-08 01:00:00,70.0,-99.9,-100.00,WSW,247,5.0,8.0,-999,-99.99,,,-99.99,,2013-06-08 07:00:00,
2013-06-08 01:32:00,70.0,-99.9,-100.00,WSW,247,5.0,8.0,-999,-99.99,,,-99.99,,2013-06-08 07:32:00,
2013-06-08 01:42:00,70.0,-99.9,-100.00,WSW,247,5.0,8.0,-999,-99.99,,,-99.99,,2013-06-08 07:42:00,
2013-06-08 01:52:00,70.0,-99.9,-100.00,WSW,247,5.0,8.0,-999,-99.99,,,-99.99,,2013-06-08 07:52:00,
2013-06-08 03:02:00,68.0,-99.9,-100.00,WSW,245,4.0,4.0,-999,-99.99,,,-99.99,,2013-06-08 09:02:00,
2013-06-08 03:12:00,68.0,-99.9,-100.00,WSW,245,4.0,4.0,-999,-99.99,,,-99.99,,2013-06-08 09:12:00,
2013-06-08 03:20:00,66.0,-99.9,-100.00,WSW,247,1.0,3.0,-999,-99.99,,,-99.99,,2013-06-08 09:20:00,
2013-06-08 03:53:00,67.0,-99.9,-100.00,WSW,245,3.0,5.0,-999,-99.99,,,-99.99,,2013-06-08 09:53:00,
2013-06-08 04:03:00,66.0,-99.9,-100.00,WSW,247,1.0,3.0,-999,-99.99,,,-99.99,,2013-06-08 10:03:00,
2013-06-08 04:12:00,66.0,-99.9,-100.00,WSW,247,1.0,3.0,-999,-99.99,,,-99.99,,2013-06-08 10:12:00,
2013-06-08 06:33:00,63.0,-99.9,-100.00,WSW,245,1.0,2.0,-999,-99.99,,,-99.99,,2013-06-08 12:33:00,
2013-06-08 06:42:00,63.0,-99.9,-100.00,WSW,245,1.0,2.0,-999,-99.99,,,-99.99,,2013-06-08 12:42:00,
2013-06-08 06:52:00,64.0,-99.9,-100.00,WSW,240,1.0,2.0,-999,-99.99,,,-99.99,,2013-06-08 12:52:00,
2013-06-08 07:02:00,65.0,-99.9,-100.00,WSW,246,2.0,3.0,-999,-99.99,,,-99.99,,2013-06-08 13:02:00,
2013-06-08 07:12:00,65.0,-99.9,-100.00,WSW,246,2.0,3.0,-999,-99.99,,,-99.99,,2013-06-08 13:12:00,
2013-06-08 07:22:00,65.0,-99.9,-100.00,WSW,246,2.0,3.0,-999,-99.99,,,-99.99,,2013-06-08 13:22:00,
2013-06-08 07:40:00,72.0,-99.9,-100.00,South,191,1.0,2.0,-999,-99.99,,,-99.99,,2013-06-08 13:40:00,
2013-06-08 08:02:00,69.0,-99.9,-100.00,WSW,248,1.0,2.0,-999,-99.99,,,-99.99,,2013-06-08 14:02:00,
2013-06-08 08:12:00,69.0,-99.9,-100.00,WSW,248,1.0,2.0,-999,-99.99,,,-99.99,,2013-06-08 14:12:00,
2013-06-08 08:22:00,72.0,-99.9,-100.00,South,191,1.0,2.0,-999,-99.99,,,-99.99,,2013-06-08 14:22:00,
2013-06-08 08:33:00,72.0,-99.9,-100.00,South,191,1.0,2.0,-999,-99.99,,,-99.99,,2013-06-08 14:33:00,
2013-06-08 10:40:00,88.0,-99.9,-100.00,ENE,60,0.0,3.0,-999,-99.99,,,-99.99,,2013-06-08 16:40:00,
2013-06-08 11:23:00,88.0,-99.9,-100.00,ENE,60,0.0,3.0,-999,-99.99,,,-99.99,,2013-06-08 17:23:00,
2013-06-08 11:32:00,88.0,-99.9,-100.00,ENE,60,0.0,3.0,-999,-99.99,,,-99.99,,2013-06-08 17:32:00,
2013-06-08 12:52:00,102.0,-99.9,-100.00,NE,43,2.0,3.0,-999,-99.99,,,-99.99,,2013-06-08 18:52:00,
2013-06-08 13:22:00,103.0,-99.9,-100.00,NNE,23,0.0,2.0,-999,-99.99,,,-99.99,,2013-06-08 19:22:00,
2013-06-08 14:02:00,102.0,-99.9,-100.00,NE,43,1.0,4.0,-999,-99.99,,,-99.99,,2013-06-08 20:02:00,
2013-06-08 15:40:00,102.0,-99.9,-100.00,SE,128,0.0,3.0,-999,-99.99,,,-99.99,,2013-06-08 21:40:00,
2013-06-08 15:53:00,113.0,-99.9,-100.00,NE,48,2.0,4.0,-999,-99.99,,,-99.99,,2013-06-08 21:53:00,
2013-06-08 16:23:00,102.0,-99.9,-100.00,SE,128,0.0,3.0,-999,-99.99,,,-99.99,,2013-06-08 22:23:00,
2013-06-08 16:34:00,102.0,-99.9,-100.00,SE,128,0.0,3.0,-999,-99.99,,,-99.99,,2013-06-08 22:34:00,
2013-06-08 17:02:00,110.0,-99.9,-100.00,East,95,2.0,8.0,-999,-99.99,,,-99.99,,2013-06-08 23:02:00,
2013-06-08 17:52:00,111.0,-99.9,-100.00,NNE,31,2.0,3.0,-999,-99.99,,,-99.99,,2013-06-08 23:52:00,
2013-06-08 19:02:00,98.0,-99.9,-100.00,ENE,57,3.0,5.0,-999,-99.99,,,-99.99,,2013-06-09 01:02:00,
2013-06-08 19:12:00,98.0,-99.9,-100.00,ENE,57,3.0,5.0,-999,-99.99,,,-99.99,,2013-06-09 01:12:00,
2013-06-08 19:30:00,94.0,-99.9,-100.00,NNE,17,2.0,3.0,-999,-99.99,,,-99.99,,2013-06-09 01:30:00,
2013-06-08 20:22:00,94.0,-99.9,-100.00,NNE,17,2.0,3.0,-999,-99.99,,,-99.99,,2013-06-09 02:22:00,
2013-06-08 21:22:00,88.0,-99.9,-100.00,NNE,21,0.0,2.0,-999,-99.99,,,-99.99,,2013-06-09 03:22:00,
2013-06-08 21:33:00,88.0,-99.9,-100.00,NNE,21,0.0,2.0,-999,-99.99,,,-99.99,,2013-06-09 03:33:00,
2013-06-08 22:23:00,87.0,-99.9,-100.00,NE,35,3.0,4.0,-999,-99.99,,,-99.99,,2013-06-09 04:23:00,
2013-06-08 22:33:00,87.0,-99.9,-100.00,NE,35,3.0,4.0,-999,-99.99,,,-99.99,,2013-06-09 04:33:00,
2013-06-08 23:32:00,83.0,-99.9,-100.00,WSW,245,0.0,2.0,-999,-99.99,,,-99.99,,2013-06-09 05:32:00,